Weather History for CYCO - December, 2012

Change the Weather History Date:

Sunday, December 23, 2012

  Actual Average Record
Temperature  
Mean Temperature -24 °F -  
Max Temperature -16 °F -1 °F 28 °F (1999)
Min Temperature -31 °F -15 °F -31 °F (2012)
Degree Days  
Heating Degree Days 89    
Moisture  
Dew Point -32 °F    
Average Humidity 70    
Maximum Humidity 76    
Minimum Humidity 56    
Precipitation  
Precipitation 0.00 in - - ()
Sea Level Pressure  
Sea Level Pressure 30.92 in    
Wind  
Wind Speed 6 mph ()    
Max Wind Speed 13 mph    
Max Gust Speed -    
Visibility 14.7 miles    
Events Snow    
Averages and records for this station are not official NWS values.
T = Trace of Precipitation, MM = Missing Value Source: Averaged Metar Reports

Daily Weather History Graph

Daily Weather History Graph

Search for Another Location

Airport or City:

Trip Planner

Search our weather history database for the weather conditions in past years. The results will help you decide how hot, cold, wet, or windy it might be!

Date:

Astronomy

Dec. 23, 2012 Rise Set
Actual Time 12:07 PM MST 1:12 PM MST
Civil Twilight 9:57 AM MST 3:22 PM MST
Nautical Twilight 8:30 AM MST 4:50 PM MST
Astronomical Twilight 7:19 AM MST 6:01 PM MST
Moon 11:59 AM MST (12/23) 5:53 AM MST (12/23)
Length of Visible Light 5h 24m
Length of Day
1h 04m
Waxing Gibbous, 82% of the Moon is Illuminated
Dec 23
Waxing Gibbous
Dec 28
Full
Jan 4
Last Quarter
Jan 11
New
Jan 18
First Quarter

Hourly Weather History & Observations

Time (MST) Temp. Windchill Dew Point Humidity Pressure Visibility Wind Dir Wind Speed Gust Speed Precip Events Conditions
12:00 AM -27.4 °F -51.4 °F -34.6 °F 69% 30.91 in 15.0 mi SW 11.5 mph - N/A   Partly Cloudy
1:00 AM -27.4 °F -52.5 °F -36.4 °F 62% 30.91 in 15.0 mi WSW 12.7 mph - N/A   Partly Cloudy
2:00 AM -27.4 °F -51.4 °F -32.8 °F 75% 30.92 in 15.0 mi SW 11.5 mph - N/A   Partly Cloudy
3:00 AM -27.4 °F -50.3 °F -32.8 °F 75% 30.93 in 15.0 mi SW 10.4 mph - N/A   Clear
4:00 AM -29.2 °F -53.7 °F -40.0 °F 56% 30.93 in 15.0 mi SW 11.5 mph - N/A   Clear
5:00 AM -30 °F - -36 °F 56% 30.92 in 15 mi SW 11.5 mph - -  
6:00 AM -27.4 °F -44.1 °F -34.6 °F 69% 30.92 in 15.0 mi SW 5.8 mph - N/A   Clear
7:00 AM -29.2 °F -54.8 °F -34.6 °F 75% 30.92 in 15.0 mi SW 12.7 mph - N/A   Clear
8:00 AM -27.4 °F -52.5 °F -34.6 °F 69% 30.92 in 15.0 mi SW 12.7 mph - N/A   Clear
9:00 AM -23.8 °F -39.8 °F -29.2 °F 76% 30.93 in 15.0 mi WSW 5.8 mph - N/A   Partly Cloudy
10:00 AM -27.4 °F -39.2 °F -34.6 °F 69% 30.93 in 15.0 mi WSW 3.5 mph - N/A   Partly Cloudy
11:00 AM -29 °F - -35 °F 58% 30.93 in 15 mi SW 8.1 mph - -   Scattered Clouds
11:00 AM -29.2 °F -49.7 °F -34.6 °F 75% 30.93 in 15.0 mi SW 8.1 mph - N/A   Partly Cloudy
12:00 PM -31.0 °F - -36.4 °F 75% 30.92 in 15.0 mi Calm Calm - N/A   Partly Cloudy
1:00 PM -31.0 °F -46.1 °F -38.2 °F 68% 30.93 in 15.0 mi SW 4.6 mph - N/A   Partly Cloudy
2:00 PM -29.2 °F -41.2 °F -34.6 °F 75% 30.92 in 15.0 mi SW 3.5 mph - N/A   Mostly Cloudy
3:00 PM -29.2 °F - -34.6 °F 75% 30.93 in 15.0 mi Calm Calm - N/A   Mostly Cloudy
4:00 PM -29.2 °F - -34.6 °F 75% 30.93 in 15.0 mi Calm Calm - N/A   Mostly Cloudy
5:00 PM -27 °F - -33 °F 59% 30.93 in 15 mi Calm Calm - - Snow Snow
5:00 PM -27.4 °F - -32.8 °F 75% 30.93 in 15.0 mi Calm Calm - N/A   Mostly Cloudy
6:00 PM -23.8 °F - -31.0 °F 69% 30.92 in 15.0 mi Calm Calm - N/A   Mostly Cloudy
7:00 PM -22.0 °F - -27.4 °F 76% 30.92 in 15.0 mi Calm Calm - N/A   Mostly Cloudy
8:00 PM -20.2 °F - -25.6 °F 76% 30.91 in 12.0 mi Calm Calm - N/A   Mostly Cloudy
9:00 PM -18.4 °F - -23.8 °F 76% 30.91 in 15.0 mi Calm Calm - N/A   Scattered Clouds
10:00 PM -18.4 °F - -23.8 °F 76% 30.91 in 15.0 mi Calm Calm - N/A   Partly Cloudy
11:00 PM -17 °F - -22 °F 66% 30.91 in 15 mi Calm Calm - - Snow Snow
11:00 PM -16.6 °F - -22.0 °F 76% 30.91 in 10.0 mi Calm Calm - N/A   Clear